STARLINK-11537, 62911

Orbit data source: Space-Track

STARLINK-11537, 62911 is a payload satellite owned by SpaceX/Seattle (US) in LEO that was launched on Sat, 08 Feb 2025 UTC via an FALCON 9 launch vehicle from the Air Force Eastern Test Range (AFETR). Payload-class satellites include a variety of spacecraft equipped with specific instruments for various scientific and technological missions. These include communications satellites like Starlink; space stations such as the ISS; scientific satellites like the Hubble; Earth observation satellites from companies like Planet Labs, Umbra, and HawkEye 360; GPS; miniature CubeSats for education and research; and military/defense satellites.

Loading next visibility...
Identifier
62911, 2025-027E
Orbit
LEO
Last TLE update
11 hours ago
Origin
Manufacturer
SpaceX/Seattle
Mission
Operational Commercial Communications
Bus & Motor
STARLINK V2M, Unknown motor
Mass
730 kg wet, ~700 kg dry
Launch date (UTC)
2025-02-08 (5 months ago)
Launch vehicle
FALCON 9
Launch site
Air Force Eastern Test Range (AFETR)
Object type
Payload
Rocket body
Debris
Shape & HBR
Box + 2 Pan, 29 m
Radar Cross Section
36.964 m², Large (>1 m²)

Expand to show TLE details & history

TLE from 11 hours ago
0 STARLINK-11537
1 62911U 25027E   25187.57152755  .00033688  00000-0  26483-3 0  9999
2 62911  43.0002  31.2276 0002053 259.3651 100.6986 15.70851576 24485
Epoch: 2025-07-06T13:42Z
TLE epoch observation values (Epoch: 2025-07-06T13:42:59.98Z)
Latitude
0.00002°
Longitude
-99.31559°
Altitude
356.49 km
Speed
7.697 km/s
True Right ascension
02h 04m 54s
True Declination
0° 00' 00"
Sunlit
Object was in daylight at epoch
Visualization orbit readout
Latitude
40.71905°
Longitude
-35.46815°
Altitude
360.322 km
Speed
7.698 km/s
Apparent Right ascension
03h 36m 01s
Apparent Declination
2° 20' 19"
Sunlit
Object is in daylight
Visualization observer readout
Local Sidereal Time
12:42:49
Azimuth
306° NW
Elevation
-32.109°
Doppler factor
1
Orbital elements
Apogee altitude
359.827 km
Perigee altitude
357.061 km
Semi-major axis
6,736.581 km
Eccentricity
0.00021
Inclination
43.0002°
RAAN
31.2276°
Arg. of periapsis
259.3651°
True anomaly
Unknown
Mean anomaly
100.6986°
Eccentric anomaly
Unknown
Mean motion
3.9254 °/min
Orbital period
91.71 mins
BSTAR
0.00026483
Loading maneuver chart data...
Loading SW <> Apogee altitude chart data...
Loading historical data...
Loading historical data...
Loading historical data...
Loading historical data...
Loading historical data...
Loading historical data...
Loading historical data...

STARLINK-11537 Visibility forecast

Observer location: undefined°, undefined°

Span
Click to sort rows by Start time (UTC) header in descending order
Start Az.
Max El. time (UTC)
Max El. Az.
Max El.
End time (UTC)
End Az.
4 mins2025-07-07 17:26:18.849Z235.776° WSW2025-07-07 17:28:18.849Z105.955° ESE39.488°2025-07-07 17:30:18.849Z76.278° E
4 mins2025-07-07 19:02:18.849Z288.595° WNW2025-07-07 19:04:18.849Z12° NNE34.732°2025-07-07 19:06:18.849Z66.243° ENE
4 mins2025-07-07 20:39:18.849Z305.424° NW2025-07-07 20:40:18.849Z1.278° NNE40.691°2025-07-07 20:43:18.849Z93.997° ESE
|